Regional Weather Roundup
Issued by NWS

Home | Current Version | Previous Version | Graphics & Text | Print | Product List | Glossary On
Versions: 1 2 3 4 5 6 7 8 9 10 11 12 13 14 15 16 17 18 19 20 21 22 23 24 25 26 27 28 29 30 31 32 33 34 35 36 37 38 39 40 41 42 43 44 45 46 47 48 49 50
520
ASUS43 KMKX 061100
RWRWI

WISCONSIN REGIONAL WEATHER ROUNDUP
NATIONAL WEATHER SERVICE MILWAUKEE/SULLIVAN WI
500 AM CST TUE DEC 06 2016

NOTE: "FAIR" INDICATES FEW OR NO CLOUDS BELOW 12,000 FEET WITH NO
SIGNIFICANT WEATHER AND/OR OBSTRUCTIONS TO VISIBILITY.

WIZ001-002-006>008-014>016-023>028-061200-
NORTHWEST WISCONSIN

CITY           SKY/WX    TMP DP  RH WIND       PRES   REMARKS
SUPERIOR ARPT  CLOUDY    35  30  82 SW10      29.59S WCI  28
ASHLAND        CLOUDY    34  32  92 MISG      29.63F
HAYWARD        LGT SNOW  33  30  88 S15       29.63F FOG     WCI  23
SIREN          CLOUDY    32  27  79 SW14      29.64F WCI  22
CUMBERLAND     LGT SNOW  32  32 100 S10       29.66S WCI  24
RICE LAKE      LGT SNOW  33  32  97 S8        29.69F WCI  26
CHETEK         LGT SNOW  32  32  99 S10       29.69F WCI  24
LADYSMITH      LGT SNOW  33  32  98 S10       29.71F VSB 1   WCI  24
EAU CLAIRE     LGT SNOW  33  32  96 S10       29.71F FOG     WCI  25
MENOMONIE      LGT SNOW  33  33 100 S12       29.71S WCI  24
NEW RICHMOND   CLOUDY    32  27  83 SW21      29.69R WCI  20
OSCEOLA        CLOUDY    32  26  78 W18       29.72R WCI  21
$$

WIZ003>005-009-010-017-018-061200-
NORTH CENTRAL WISCONSIN

CITY           SKY/WX    TMP DP  RH WIND       PRES   REMARKS
MANITOWISH WTR CLOUDY    32  29  90 S16       29.68S WCI  21
ARBOR VITAE    CLOUDY    34  29  80 S9        29.70F WCI  27
WOODRUFF       CLOUDY    34  29  80 S9        29.70F WCI  27
RHINELANDER    MOCLDY    31  28  89 S9        29.72F WCI  23
EAGLE RIVER    PTCLDY    31  26  81 S7        29.71S WCI  24
LAND O LAKES   PTCLDY    32  27  81 S9        29.71F WCI  24
PHILLIPS       CLOUDY    31  29  92 S12G20    29.69F WCI  22
TOMAHAWK       CLOUDY    30  27  90 S5        29.73F WCI  25
MEDFORD        CLOUDY    30  28  93 S12       29.72F FOG     WCI  21
MERRILL        CLOUDY    31  28  90 S7        29.76F WCI  24
$$

WIZ029-030-035-036-043>047-061200-
CENTRAL WISCONSIN

CITY           SKY/WX    TMP DP  RH WIND       PRES   REMARKS
WAUSAU         CLOUDY    30  28  92 S14       29.75F WCI  19
MOSINEE        CLOUDY    30  30 100 S10       29.78S WCI  21
MARSHFIELD     CLOUDY    31  28  89 S10       29.74F WCI  22
STEVENS POINT  CLOUDY    29  28  98 S7        29.79F FOG     WCI  22
WAUPACA        CLOUDY    33  31  90 S5        29.81F FOG     WCI  29
WAUTOMA        CLOUDY    31  29  92 S8        29.82F FOG     WCI  23
WISC RAPIDS    CLOUDY    31  29  92 S8        29.79F WCI  23
CAMP DOUGLAS   NOT AVBL
$$

WIZ011>013-019>022-031-037>040-048>050-061200-
NORTHEAST WISCONSIN

CITY           SKY/WX    TMP DP  RH WIND       PRES   REMARKS
ANTIGO         CLOUDY    29  28  98 SE14      29.76S FOG     WCI  18
SHAWANO        CLOUDY    36  33  89 S5        29.80F WCI  32
OCONTO         CLOUDY    38  35  88 S6        29.84F WCI  33
STURGEON BAY   CLOUDY    38  35  89 S15       29.84S WCI  29
GREEN BAY      CLOUDY    38  35  89 SE9       29.82F WCI  31
MANITOWOC      NOT AVBL
APPLETON       NOT AVBL
CLINTONVILLE   CLOUDY    34  32  93 S8        29.81F FOG     WCI  27
OSHKOSH        CLOUDY    33  31  92 S8        29.81F FOG     WCI  26
$$

WIZ032>034-041-042-053>061-061200-
SOUTHWEST WISCONSIN

CITY           SKY/WX    TMP DP  RH WIND       PRES   REMARKS
LA CROSSE      CLOUDY    35  31  85 S15       29.77F WCI  25
SPARTA         CLOUDY    32  30  92 S5        29.78F WCI  27
VIROQUA        CLOUDY    30  30 100 S9        29.78S WCI  22
BOSCOBEL       CLOUDY    33  30  88 CALM      29.81F
PRAIRIE DU CHI CLOUDY    32  29  88 E3        29.80F
PLATTEVILLE    CLOUDY    32  32 100 SE5       29.81F VSB 1/2 WCI  27
$$

WIZ056-057-062-063-064-067-068-061200-
SOUTH CENTRAL WISCONSIN

CITY           SKY/WX    TMP DP  RH WIND       PRES   REMARKS
REEDSBURG      CLOUDY    31  31 100 SW9       29.81F WCI  22
BARABOO/DELLS  CLOUDY    30  29  96 S10       29.81S FOG     WCI  21
LONE ROCK      NOT AVBL
MINERAL POINT  FOG       32  32 100 S3        29.80F VSB 1/4
MADISON        CLOUDY    31  31 100 S8        29.82F FOG     WCI  23
MIDDLETON      NOT AVBL
WATERTOWN      CLOUDY    31  31 100 SE3       29.82F FOG
MONROE         FOG       32  32 100 S3        29.80F VSB 1/4
JANESVILLE     FOG       34  34 100 SE5       29.82F VSB 1   WCI  30
$$

WIZ051-052-058>065-066-070>072-061200-
SOUTHEAST WISCONSIN

CITY           SKY/WX    TMP DP  RH WIND       PRES   REMARKS
MILWAUKEE      CLOUDY    39  33  79 S5        29.84F
WAUKESHA       CLOUDY    32  32 100 CALM      29.84F FOG
MILWAUKEE/TIMM CLOUDY    34  32  93 CALM      29.85F FOG
RACINE         MOCLDY    38  33  82 SE6       29.84F WCI  33
BURLINGTON     CLOUDY    32  32  99 CALM      29.83S FOG
KENOSHA        PTCLDY    36  33  89 E6        29.82F WCI  31
FOND DU LAC    CLOUDY    33  29  85 S13       29.82F WCI  24
SHEBOYGAN      CLOUDY    37  34  89 S7        29.84F WCI  32
WEST BEND      CLOUDY    32  32 100 S3        29.84F FOG
JUNEAU         CLOUDY    31  30  96 SE8       29.84S FOG     WCI  23
$$

LSZ147-162-061200-
LAKE SUPERIOR

STATION/POSITION TIME  TEMP    WIND        PRES    WAVE
                       AIR SEA DIR/SP/G            HT/PER
                 (UTC) (F)     (DEG/KT/KT) (MB)    (FT/S)
DEVILS ISLAND    1000   39     170/ 12/ 16 1004.3F
PORT WING        1040   38     180/ 17/ 22 1003.0F
SAXON HARBOR     1040   36     180/  5/ 12 1004.1F
$$

LMZ867-665-643>646-061200-
LAKE MICHIGAN

STATION/POSITION TIME  TEMP    WIND        PRES    WAVE
                       AIR SEA DIR/SP/G            HT/PER
                 (UTC) (F)     (DEG/KT/KT) (MB)    (FT/S)
CHAMBERS ISLAND  1040   40     150/  7/ 13 1010.2F
NORTHPORT PIER   1040   41     150/ 18/ 23 1010.5F
SISTER BAY       0938   40     170/ 14/ 20   N/A
ALGOMA LAKESHORE 0921          200/ 20/ 25   N/A
KEWAUNEE LAKESHO 1030   40     170/ 19/ 21 1010.1F
SHEBOYGAN LAKESH 1000   39     160/ 15/ 17 1011.0F
PORT WASHINGTON  1040   37     260/  2/  4 1012.2S
MILWAUKEE LAKESH 1030   39     150/ 11/ 12   N/A
KENOSHA   LAKESH 1000   39     160/ 10/ 13 1010.8
$$

TC  - TEMPERATURE IN CELSIUS
VSB - VISIBILITY IN STATUTE MILES
WCI - WIND CHILL INDEX
HX  - HEAT INDEX





USA.gov is the U.S. government's official web portal to all federal, state and local government web resources and services.